Location: Oshawa
(43.9000°N, 78.8670°W)
Time: 02:28:42
(UTC-05:00)

Cosmos 1805 Rocket - Visible Passes

Search period start: 06 March 2015 00:00
Search period end: 16 March 2015 01:00
Orbit: 607 x 631 km, 82.5° (Epoch: 05 March)

Date Brightness Start Highest point End Pass type
(mag) Time Alt. Az. Time Alt. Az. Time Alt. Az.
09 Mar 6.3 22:19:42 10° N 22:20:03 12° N 22:20:03 12° N visible
10 Mar 6.4 22:37:04 10° NNW 22:37:40 14° NNW 22:37:40 14° NNW visible
11 Mar 5.8 21:17:22 10° NNE 21:18:07 13° NNE 21:18:07 13° NNE visible
11 Mar 6.5 22:54:40 10° NNW 22:55:18 14° NNW 22:55:18 14° NNW visible
12 Mar 5.5 21:34:12 10° N 21:35:47 20° NNE 21:35:47 20° NNE visible
12 Mar 6.7 23:12:37 10° NW 23:12:58 12° NW 23:12:58 12° NW visible
13 Mar 5.2 21:51:20 10° N 21:53:30 28° N 21:53:30 28° N visible
14 Mar 5.6 20:32:43 10° NE 20:34:03 12° NE 20:34:03 12° NE visible
14 Mar 5.1 22:08:43 10° NNW 22:11:14 33° NNW 22:11:14 33° NNW visible
15 Mar 5.0 20:48:56 10° NNE 20:51:50 22° ENE 20:51:50 22° ENE visible
15 Mar 5.5 22:26:20 10° NNW 22:29:01 28° NW 22:29:01 28° NW visible
